,,,PA_Meas_PMT16A,,PR_Meas_QMR101_102,,RH_Meas_QMH101,,SR_Meas_QMS101,,TA_Meas_QMH101,,GenWind,,GenWind,
date,time,status,PA,status,PR,status,RH,status,SR,status,TA,status,DirAvg,status,SpdAvg,
2009-09-19, 00:00:04,VALID,1005.14,VALID,0,VALID,86.7861,VALID,0,VALID,25.5941,VALID,338,VALID,0.669922,
2009-09-19, 00:01:04,VALID,1005.15,VALID,0,VALID,87.2362,VALID,0,VALID,25.5921,VALID,338,VALID,0.280469,
2009-09-19, 00:02:04,VALID,1005.12,VALID,0,VALID,87.1676,VALID,0.100563,VALID,25.5337,VALID,338,VALID,0.212109,
2009-09-19, 00:03:04,VALID,1005.1,VALID,0,VALID,87.7016,VALID,0,VALID,25.5337,VALID,338,VALID,0.251563,
2009-09-19, 00:04:04,VALID,1005.08,VALID,0,VALID,87.6863,VALID,0,VALID,25.4539,VALID,338,VALID,0.426172,
2009-09-19, 00:05:04,VALID,1005.04,VALID,0,VALID,87.6558,VALID,0,VALID,25.4149,VALID,350,VALID,0.489062,
2009-09-19, 00:06:04,VALID,1005.04,VALID,0,VALID,88.0754,VALID,0,VALID,25.4169,VALID,350,VALID,0.163672,
2009-09-19, 00:07:04,VALID,1005.02,VALID,0,VALID,87.9305,VALID,0,VALID,25.3974,VALID,22,VALID,0.336719,
2009-09-19, 00:08:04,VALID,1005.02,VALID,0,VALID,87.4346,VALID,0,VALID,25.3584,VALID,6,VALID,0.578906,
2009-09-19, 00:09:04,VALID,1005,VALID,0,VALID,86.5802,VALID,0,VALID,25.337,VALID,359,VALID,0.994531,
2009-09-19, 00:10:04,VALID,1005.03,VALID,0,VALID,86.1224,VALID,0,VALID,25.3584,VALID,351,VALID,0.757031,
2009-09-19, 00:11:04,VALID,1005,VALID,0,VALID,86.4428,VALID,0,VALID,25.3974,VALID,3,VALID,0.145703,
2009-09-19, 00:12:04,VALID,1005.05,VALID,0,VALID,86.214,VALID,0,VALID,25.3779,VALID,356,VALID,0.648438,
2009-09-19, 00:13:04,VALID,1005.04,VALID,0,VALID,86.2903,VALID,0,VALID,25.3974,VALID,333,VALID,0.503906,
2009-09-19, 00:14:04,VALID,1005.07,VALID,0,VALID,86.1529,VALID,0,VALID,25.3584,VALID,330,VALID,0.394922,
2009-09-19, 00:15:04,VALID,1005.12,VALID,0,VALID,86.214,VALID,0,VALID,25.3779,VALID,330,VALID,0,
2009-09-19, 00:16:04,VALID,1005.12,VALID,0,VALID,86.42,VALID,0,VALID,25.3779,VALID,330,VALID,0.149219,
2009-09-19, 00:17:04,VALID,1005.17,VALID,0,VALID,86.4276,VALID,0,VALID,25.3176,VALID,330,VALID,0.04375,
2009-09-19, 00:18:04,VALID,1005.16,VALID,0,VALID,86.5344,VALID,0,VALID,25.2981,VALID,330,VALID,0.201953,
2009-09-19, 00:19:04,VALID,1005.17,VALID,0,VALID,86.2598,VALID,0,VALID,25.3176,VALID,330,VALID,0.0199219,
2009-09-19, 00:20:04,VALID,1005.17,VALID,0,VALID,86.5496,VALID,0,VALID,25.339,VALID,330,VALID,0,
2009-09-19, 00:21:04,VALID,1005.18,VALID,0,VALID,87.5185,VALID,0,VALID,25.339,VALID,330,VALID,0.226172,
2009-09-19, 00:22:04,VALID,1005.14,VALID,0,VALID,88.0602,VALID,0,VALID,25.2981,VALID,330,VALID,0,
2009-09-19, 00:23:04,VALID,1005.16,VALID,0,VALID,88.228,VALID,0,VALID,25.2786,VALID,330,VALID,0,
2009-09-19, 00:24:04,VALID,1005.14,VALID,0,VALID,88.1365,VALID,0,VALID,25.2202,VALID,330,VALID,0,
2009-09-19, 00:25:04,VALID,1005.17,VALID,0,VALID,88.7773,VALID,0,VALID,25.2416,VALID,330,VALID,0,
2009-09-19, 00:26:04,VALID,1005.13,VALID,0,VALID,89.1053,VALID,0,VALID,25.2027,VALID,330,VALID,0.0992187,
2009-09-19, 00:27:04,VALID,1005.16,VALID,0,VALID,89.502,VALID,0.100563,VALID,25.1637,VALID,330,VALID,0,
2009-09-19, 00:28:04,VALID,1005.15,VALID,0,VALID,89.6927,VALID,0.100563,VALID,25.1248,VALID,330,VALID,0.185937,
2009-09-19, 00:29:04,VALID,1005.15,VALID,0,VALID,90.2649,VALID,0,VALID,25.0858,VALID,330,VALID,0.521875,
2009-09-19, 00:30:04,VALID,1005.14,VALID,0,VALID,90.7303,VALID,0,VALID,24.9866,VALID,330,VALID,0.487891,
2009-09-19, 00:31:04,VALID,1005.15,VALID,0,VALID,91.0659,VALID,0,VALID,24.9282,VALID,330,VALID,0.454297,
2009-09-19, 00:32:04,VALID,1005.14,VALID,0,VALID,91.2109,VALID,0,VALID,24.8911,VALID,330,VALID,0.642578,
2009-09-19, 00:33:04,VALID,1005.12,VALID,0,VALID,91.4626,VALID,0,VALID,24.8308,VALID,330,VALID,0.571484,
2009-09-19, 00:34:04,VALID,1005.13,VALID,0,VALID,91.7831,VALID,0,VALID,24.7919,VALID,330,VALID,0.298438,
2009-09-19, 00:35:04,VALID,1005.13,VALID,0,VALID,92.0424,VALID,0,VALID,24.7335,VALID,330,VALID,0.291797,
2009-09-19, 00:36:04,VALID,1005.11,VALID,0,VALID,92.2866,VALID,0.100563,VALID,24.7353,VALID,330,VALID,0.377344,
2009-09-19, 00:37:04,VALID,1005.07,VALID,0,VALID,92.5231,VALID,0,VALID,24.714,VALID,330,VALID,0.521875,
2009-09-19, 00:38:04,VALID,1005.06,VALID,0,VALID,92.6375,VALID,0,VALID,24.675,VALID,330,VALID,0.516797,
2009-09-19, 00:39:04,VALID,1005.06,VALID,0,VALID,92.8053,VALID,0.100563,VALID,24.6556,VALID,330,VALID,0.352734,
2009-09-19, 00:40:04,VALID,1005.02,VALID,0,VALID,92.9655,VALID,0.100563,VALID,24.6556,VALID,330,VALID,0.402734,
2009-09-19, 00:41:04,VALID,1004.98,VALID,0,VALID,93.0418,VALID,0.100563,VALID,24.6574,VALID,330,VALID,0.145703,
2009-09-19, 00:42:04,VALID,1004.95,VALID,0,VALID,93.141,VALID,0.100563,VALID,24.6166,VALID,330,VALID,0.265625,
2009-09-19, 00:43:04,VALID,1004.94,VALID,0,VALID,93.1791,VALID,0.100563,VALID,24.6185,VALID,337,VALID,0.00625,
2009-09-19, 00:44:04,VALID,1004.83,VALID,0,VALID,93.1868,VALID,0.100563,VALID,24.5777,VALID,5,VALID,0.191016,
2009-09-19, 00:45:04,VALID,1004.79,VALID,0,VALID,93.2325,VALID,0,VALID,24.5582,VALID,5,VALID,0.334766,
2009-09-19, 00:46:04,VALID,1004.76,VALID,0,VALID,93.2859,VALID,0,VALID,24.5388,VALID,5,VALID,0.25,
2009-09-19, 00:47:04,VALID,1004.73,VALID,0,VALID,93.3622,VALID,0,VALID,24.5388,VALID,5,VALID,0.237109,
2009-09-19, 00:48:04,VALID,1004.72,VALID,0,VALID,93.4538,VALID,0.100563,VALID,24.5388,VALID,5,VALID,0.225391,
2009-09-19, 00:49:04,VALID,1004.69,VALID,0,VALID,93.4614,VALID,0,VALID,24.5388,VALID,5,VALID,0.05,
2009-09-19, 00:50:04,VALID,1004.68,VALID,0,VALID,93.4996,VALID,0,VALID,24.5601,VALID,5,VALID,0,
2009-09-19, 00:51:04,VALID,1004.69,VALID,0,VALID,93.5453,VALID,0.100563,VALID,24.5582,VALID,5,VALID,0.102734,
2009-09-19, 00:52:04,VALID,1004.69,VALID,0,VALID,93.6445,VALID,0.100563,VALID,24.5582,VALID,5,VALID,0,
2009-09-19, 00:53:04,VALID,1004.7,VALID,0,VALID,93.6521,VALID,0.100563,VALID,24.5777,VALID,5,VALID,0,
2009-09-19, 00:54:04,VALID,1004.66,VALID,0,VALID,93.7284,VALID,0,VALID,24.6185,VALID,4,VALID,0.373047,
2009-09-19, 00:55:04,VALID,1004.69,VALID,0,VALID,93.7895,VALID,0.100563,VALID,24.638,VALID,4,VALID,0.0777344,
2009-09-19, 00:56:04,VALID,1004.7,VALID,0,VALID,93.7666,VALID,0,VALID,24.675,VALID,4,VALID,0.188281,
2009-09-19, 00:57:04,VALID,1004.64,VALID,0,VALID,93.7132,VALID,0.100563,VALID,24.714,VALID,4,VALID,0.059375,
2009-09-19, 00:58:04,VALID,1004.65,VALID,0,VALID,93.6979,VALID,0,VALID,24.7335,VALID,4,VALID,0,
2009-09-19, 00:59:04,VALID,1004.64,VALID,0,VALID,93.5835,VALID,0.100563,VALID,24.7548,VALID,4,VALID,0.00429688,
2009-09-19, 01:00:04,VALID,1004.6,VALID,0,VALID,93.3622,VALID,0.100563,VALID,24.7335,VALID,4,VALID,0.0644531,
2009-09-19, 01:01:04,VALID,1004.56,VALID,0,VALID,93.2325,VALID,0,VALID,24.7335,VALID,4,VALID,0.00585938,
2009-09-19, 01:02:04,VALID,1004.53,VALID,0,VALID,93.1791,VALID,0.100563,VALID,24.714,VALID,4,VALID,0,
2009-09-19, 01:03:04,VALID,1004.48,VALID,0,VALID,93.1791,VALID,0,VALID,24.7353,VALID,4,VALID,0,
2009-09-19, 01:04:04,VALID,1004.39,VALID,0,VALID,93.2249,VALID,0,VALID,24.7548,VALID,4,VALID,0,
2009-09-19, 01:05:04,VALID,1004.39,VALID,0,VALID,93.1563,VALID,0,VALID,24.7353,VALID,4,VALID,0,
2009-09-19, 01:06:04,VALID,1004.35,VALID,0,VALID,92.9579,VALID,0,VALID,24.6945,VALID,4,VALID,0,
2009-09-19, 01:07:05,VALID,1004.33,VALID,0,VALID,92.8587,VALID,0,VALID,24.675,VALID,4,VALID,0,
2009-09-19, 01:08:05,VALID,1004.34,VALID,0,VALID,92.7596,VALID,0,VALID,24.6556,VALID,270,VALID,0.135547,
2009-09-19, 01:09:05,VALID,1004.33,VALID,0,VALID,92.7138,VALID,0,VALID,24.6769,VALID,270,VALID,0.0265625,
2009-09-19, 01:10:05,VALID,1004.32,VALID,0,VALID,92.7748,VALID,0,VALID,24.6556,VALID,270,VALID,0,
2009-09-19, 01:11:05,VALID,1004.34,VALID,0,VALID,92.7519,VALID,0.100563,VALID,24.675,VALID,270,VALID,0,
2009-09-19, 01:12:05,VALID,1004.39,VALID,0,VALID,92.668,VALID,0.100563,VALID,24.6556,VALID,270,VALID,0,
2009-09-19, 01:13:05,VALID,1004.36,VALID,0,VALID,92.6451,VALID,0,VALID,24.6574,VALID,270,VALID,0,
2009-09-19, 01:14:05,VALID,1004.42,VALID,0,VALID,92.729,VALID,0.100563,VALID,24.6556,VALID,270,VALID,0,
2009-09-19, 01:15:05,VALID,1004.45,VALID,0,VALID,92.7367,VALID,0.100563,VALID,24.6556,VALID,270,VALID,0,
2009-09-19, 01:16:05,VALID,1004.5,VALID,0,VALID,92.7901,VALID,0.100563,VALID,24.638,VALID,270,VALID,0.182812,
2009-09-19, 01:17:05,VALID,1004.47,VALID,0,VALID,92.7367,VALID,0.100563,VALID,24.5972,VALID,270,VALID,0,
2009-09-19, 01:18:05,VALID,1004.48,VALID,0,VALID,92.8206,VALID,0.100563,VALID,24.6185,VALID,270,VALID,0,
2009-09-19, 01:19:05,VALID,1004.48,VALID,0,VALID,92.9274,VALID,0.100563,VALID,24.5564,VALID,270,VALID,0,
2009-09-19, 01:20:05,VALID,1004.49,VALID,0,VALID,92.9732,VALID,0.100563,VALID,24.599,VALID,270,VALID,0.126953,
2009-09-19, 01:21:05,VALID,1004.46,VALID,0,VALID,92.9961,VALID,0.100563,VALID,24.5777,VALID,270,VALID,0.0761719,
2009-09-19, 01:22:05,VALID,1004.46,VALID,0,VALID,92.9655,VALID,0,VALID,24.599,VALID,270,VALID,0,
2009-09-19, 01:23:05,VALID,1004.42,VALID,0,VALID,93.0189,VALID,0,VALID,24.5777,VALID,270,VALID,0.00507812,
2009-09-19, 01:24:05,VALID,1004.41,VALID,0,VALID,93.0189,VALID,0.100563,VALID,24.5777,VALID,344,VALID,0.535547,
2009-09-19, 01:25:05,VALID,1004.38,VALID,0,VALID,93.0495,VALID,0.100563,VALID,24.5582,VALID,347,VALID,0.579687,
2009-09-19, 01:26:05,VALID,1004.39,VALID,0,VALID,93.0495,VALID,0,VALID,24.5388,VALID,346,VALID,0.628125,
2009-09-19, 01:27:05,VALID,1004.42,VALID,0,VALID,93.0876,VALID,0,VALID,24.5814,VALID,344,VALID,0.623047,
2009-09-19, 01:28:05,VALID,1004.43,VALID,0,VALID,92.9884,VALID,0,VALID,24.5406,VALID,344,VALID,0.390234,
2009-09-19, 01:29:05,VALID,1004.46,VALID,0,VALID,93.0342,VALID,0,VALID,24.5212,VALID,344,VALID,0.266406,
2009-09-19, 01:30:05,VALID,1004.45,VALID,0,VALID,93.0037,VALID,0,VALID,24.5212,VALID,344,VALID,0.308984,
2009-09-19, 01:31:05,VALID,1004.43,VALID,0,VALID,93.0266,VALID,0,VALID,24.5406,VALID,344,VALID,0.653906,
2009-09-19, 01:32:05,VALID,1004.45,VALID,0,VALID,93.0266,VALID,0,VALID,24.5212,VALID,344,VALID,0.448438,
2009-09-19, 01:33:05,VALID,1004.42,VALID,0,VALID,93.141,VALID,0,VALID,24.5601,VALID,344,VALID,0.444531,
2009-09-19, 01:34:05,VALID,1004.46,VALID,0,VALID,93.1791,VALID,0,VALID,24.562,VALID,344,VALID,0.411719,
2009-09-19, 01:35:05,VALID,1004.45,VALID,0,VALID,93.1181,VALID,0,VALID,24.5601,VALID,344,VALID,0.511719,
2009-09-19, 01:36:05,VALID,1004.41,VALID,0,VALID,93.1868,VALID,0,VALID,24.5601,VALID,344,VALID,0.648438,
2009-09-19, 01:37:05,VALID,1004.39,VALID,0,VALID,93.2402,VALID,0,VALID,24.5814,VALID,345,VALID,0.563281,
2009-09-19, 01:38:05,VALID,1004.4,VALID,0,VALID,93.202,VALID,0,VALID,24.5601,VALID,358,VALID,0.924219,
2009-09-19, 01:39:05,VALID,1004.35,VALID,0,VALID,93.1944,VALID,0,VALID,24.5796,VALID,358,VALID,0.565234,
2009-09-19, 01:40:05,VALID,1004.35,VALID,0,VALID,93.0647,VALID,0,VALID,24.5796,VALID,358,VALID,0.633203,
2009-09-19, 01:41:05,VALID,1004.34,VALID,0,VALID,93.0723,VALID,0,VALID,24.5796,VALID,358,VALID,0.721484,
2009-09-19, 01:42:05,VALID,1004.32,VALID,0,VALID,93.0723,VALID,0,VALID,24.599,VALID,358,VALID,0.548047,
2009-09-19, 01:43:05,VALID,1004.32,VALID,0,VALID,92.9426,VALID,0,VALID,24.599,VALID,358,VALID,0.748438,
2009-09-19, 01:44:05,VALID,1004.34,VALID,0,VALID,92.813,VALID,0,VALID,24.599,VALID,358,VALID,0.615234,
2009-09-19, 01:45:05,VALID,1004.34,VALID,0,VALID,92.8282,VALID,0,VALID,24.638,VALID,358,VALID,0.509766,
2009-09-19, 01:46:05,VALID,1004.36,VALID,0,VALID,92.729,VALID,0,VALID,24.6788,VALID,307,VALID,0.363672,
2009-09-19, 01:47:05,VALID,1004.36,VALID,0,VALID,92.6985,VALID,0,VALID,24.6964,VALID,338,VALID,0.533594,
2009-09-19, 01:48:05,VALID,1004.34,VALID,0,VALID,92.5612,VALID,0,VALID,24.7159,VALID,338,VALID,0.453906,
2009-09-19, 01:49:05,VALID,1004.37,VALID,0,VALID,92.3934,VALID,0,VALID,24.7761,VALID,342,VALID,0.610156,
2009-09-19, 01:50:05,VALID,1004.39,VALID,0,VALID,92.3247,VALID,0,VALID,24.7956,VALID,339,VALID,0.567578,
2009-09-19, 01:51:05,VALID,1004.4,VALID,0,VALID,92.2713,VALID,0,VALID,24.7724,VALID,339,VALID,0.392188,
2009-09-19, 01:52:05,VALID,1004.43,VALID,0,VALID,92.2713,VALID,0,VALID,24.7937,VALID,340,VALID,0.604297,
2009-09-19, 01:53:05,VALID,1004.48,VALID,0,VALID,92.401,VALID,0,VALID,24.854,VALID,346,VALID,0.516406,
2009-09-19, 01:54:05,VALID,1004.54,VALID,0,VALID,92.4315,VALID,0,VALID,24.8735,VALID,308,VALID,0.491016,
2009-09-19, 01:55:05,VALID,1004.54,VALID,0,VALID,92.4468,VALID,0,VALID,24.8911,VALID,283,VALID,0.139062,
2009-09-19, 01:56:05,VALID,1004.59,VALID,0,VALID,92.3857,VALID,0,VALID,24.9319,VALID,321,VALID,0,
2009-09-19, 01:57:05,VALID,1004.55,VALID,0,VALID,92.3781,VALID,0,VALID,24.9476,VALID,325,VALID,0.508203,
2009-09-19, 01:58:05,VALID,1004.56,VALID,0,VALID,92.4925,VALID,0,VALID,25.0255,VALID,351,VALID,0.851563,
2009-09-19, 01:59:05,VALID,1004.53,VALID,0,VALID,92.2179,VALID,0,VALID,25.0839,VALID,342,VALID,0.791406,
2009-09-19, 02:00:05,VALID,1004.51,VALID,0,VALID,92.0348,VALID,0,VALID,25.1832,VALID,339,VALID,0.590625,
2009-09-19, 02:01:05,VALID,1004.51,VALID,0,VALID,91.8212,VALID,0,VALID,25.2202,VALID,353,VALID,0.560547,
2009-09-19, 02:02:05,VALID,1004.5,VALID,0,VALID,91.6152,VALID,0,VALID,25.2786,VALID,299,VALID,0.535156,
2009-09-19, 02:03:05,VALID,1004.46,VALID,0,VALID,91.2796,VALID,0,VALID,25.2981,VALID,296,VALID,0.517969,
2009-09-19, 02:04:05,VALID,1004.45,VALID,0,VALID,91.1193,VALID,0,VALID,25.337,VALID,328,VALID,0.562891,
2009-09-19, 02:05:05,VALID,1004.43,VALID,0,VALID,91.0965,VALID,0,VALID,25.376,VALID,359,VALID,1.00937,
2009-09-19, 02:06:05,VALID,1004.4,VALID,0,VALID,91.0354,VALID,0,VALID,25.4149,VALID,352,VALID,0.526563,
2009-09-19, 02:07:05,VALID,1004.36,VALID,0,VALID,90.9363,VALID,0,VALID,25.4344,VALID,352,VALID,0.179297,
2009-09-19, 02:08:05,VALID,1004.33,VALID,0,VALID,90.9439,VALID,0,VALID,25.4753,VALID,352,VALID,0.221875,
2009-09-19, 02:09:05,VALID,1004.32,VALID,0,VALID,90.9515,VALID,0,VALID,25.452,VALID,352,VALID,0.251563,
2009-09-19, 02:10:05,VALID,1004.27,VALID,0,VALID,90.8523,VALID,0,VALID,25.4948,VALID,341,VALID,0.446094,
2009-09-19, 02:11:05,VALID,1004.26,VALID,0,VALID,90.7989,VALID,0,VALID,25.4734,VALID,358,VALID,0.412891,
2009-09-19, 02:12:05,VALID,1004.25,VALID,0,VALID,90.7913,VALID,0,VALID,25.4928,VALID,358,VALID,0.417188,
2009-09-19, 02:13:05,VALID,1004.24,VALID,0,VALID,90.7303,VALID,0,VALID,25.4928,VALID,357,VALID,0.487109,
2009-09-19, 02:14:05,VALID,1004.23,VALID,0,VALID,90.7989,VALID,0,VALID,25.4948,VALID,353,VALID,0.669922,
2009-09-19, 02:15:05,VALID,1004.25,VALID,0,VALID,90.9515,VALID,0,VALID,25.4928,VALID,353,VALID,0.651172,
2009-09-19, 02:16:05,VALID,1004.23,VALID,0,VALID,91.0202,VALID,0,VALID,25.5123,VALID,352,VALID,0.617188,
2009-09-19, 02:17:05,VALID,1004.22,VALID,0,VALID,91.1117,VALID,0,VALID,25.4948,VALID,349,VALID,0.594922,
2009-09-19, 02:18:05,VALID,1004.2,VALID,0,VALID,91.1728,VALID,0,VALID,25.4734,VALID,345,VALID,0.66875,
2009-09-19, 02:19:05,VALID,1004.17,VALID,0,VALID,91.1422,VALID,0,VALID,25.4948,VALID,340,VALID,0.625391,
2009-09-19, 02:20:05,VALID,1004.19,VALID,0,VALID,91.1575,VALID,0,VALID,25.5142,VALID,345,VALID,0.201562,
2009-09-19, 02:21:05,VALID,1004.2,VALID,0,VALID,91.2262,VALID,0,VALID,25.5142,VALID,345,VALID,0.167187,
2009-09-19, 02:22:05,VALID,1004.25,VALID,0,VALID,91.2109,VALID,0.100563,VALID,25.5123,VALID,345,VALID,0.371094,
2009-09-19, 02:23:05,VALID,1004.25,VALID,0,VALID,91.1804,VALID,0,VALID,25.5532,VALID,318,VALID,0.491797,
2009-09-19, 02:24:05,VALID,1004.32,VALID,0,VALID,91.1728,VALID,0,VALID,25.5532,VALID,294,VALID,0.229297,
2009-09-19, 02:25:05,VALID,1004.38,VALID,0,VALID,91.1346,VALID,0,VALID,25.5513,VALID,294,VALID,0.122266,
2009-09-19, 02:26:05,VALID,1004.43,VALID,0,VALID,91.1804,VALID,0,VALID,25.5513,VALID,294,VALID,0.0105469,
2009-09-19, 02:27:05,VALID,1004.45,VALID,0,VALID,91.2109,VALID,0,VALID,25.5727,VALID,294,VALID,0.192578,
2009-09-19, 02:28:05,VALID,1004.5,VALID,0,VALID,91.2109,VALID,0,VALID,25.5727,VALID,294,VALID,0.224219,
2009-09-19, 02:29:05,VALID,1004.5,VALID,0,VALID,91.1575,VALID,0,VALID,25.5921,VALID,294,VALID,0.130078,
2009-09-19, 02:30:05,VALID,1004.55,VALID,0,VALID,91.0507,VALID,0,VALID,25.5921,VALID,294,VALID,0,
2009-09-19, 02:31:05,VALID,1004.53,VALID,0,VALID,91.0354,VALID,0,VALID,25.633,VALID,294,VALID,0,
2009-09-19, 02:32:05,VALID,1004.53,VALID,0,VALID,91.0965,VALID,0,VALID,25.6116,VALID,294,VALID,0,
2009-09-19, 02:33:05,VALID,1004.54,VALID,0,VALID,91.0812,VALID,0,VALID,25.633,VALID,294,VALID,0.424219,
2009-09-19, 02:34:05,VALID,1004.52,VALID,0,VALID,91.0659,VALID,0,VALID,25.6136,VALID,290,VALID,0.114844,
2009-09-19, 02:35:05,VALID,1004.51,VALID,0,VALID,91.1575,VALID,0,VALID,25.5921,VALID,290,VALID,0.0699219,
2009-09-19, 02:36:05,VALID,1004.49,VALID,0,VALID,91.2185,VALID,0,VALID,25.6116,VALID,290,VALID,0,
2009-09-19, 02:37:05,VALID,1004.45,VALID,0,VALID,91.2872,VALID,0,VALID,25.6116,VALID,290,VALID,0.301953,
2009-09-19, 02:38:05,VALID,1004.4,VALID,0,VALID,91.0736,VALID,0,VALID,25.633,VALID,303,VALID,0.464453,
2009-09-19, 02:39:05,VALID,1004.37,VALID,0,VALID,90.9897,VALID,0,VALID,25.6525,VALID,292,VALID,0.547266,
2009-09-19, 02:40:05,VALID,1004.32,VALID,0,VALID,91.1728,VALID,0,VALID,25.6311,VALID,333,VALID,0.655469,
2009-09-19, 02:41:05,VALID,1004.33,VALID,0,VALID,91.0736,VALID,0,VALID,25.6311,VALID,354,VALID,0.808594,
2009-09-19, 02:42:05,VALID,1004.32,VALID,0,VALID,90.9973,VALID,0,VALID,25.67,VALID,353,VALID,0.661719,
2009-09-19, 02:43:05,VALID,1004.31,VALID,0,VALID,90.9057,VALID,0,VALID,25.6486,VALID,354,VALID,0.996875,
2009-09-19, 02:44:05,VALID,1004.37,VALID,0,VALID,90.9286,VALID,0,VALID,25.6506,VALID,351,VALID,0.74375,
2009-09-19, 02:45:05,VALID,1004.36,VALID,0,VALID,90.9897,VALID,0,VALID,25.6311,VALID,351,VALID,0.212891,
2009-09-19, 02:46:05,VALID,1004.36,VALID,0,VALID,91.0965,VALID,0,VALID,25.6311,VALID,351,VALID,0.226172,
2009-09-19, 02:47:05,VALID,1004.39,VALID,0,VALID,91.1499,VALID,0,VALID,25.6311,VALID,351,VALID,0,
2009-09-19, 02:48:05,VALID,1004.39,VALID,0,VALID,91.2414,VALID,0,VALID,25.6097,VALID,350,VALID,0.0808594,
2009-09-19, 02:49:05,VALID,1004.39,VALID,0,VALID,91.2948,VALID,0,VALID,25.6097,VALID,350,VALID,0.0339844,
2009-09-19, 02:50:05,VALID,1004.35,VALID,0,VALID,91.3253,VALID,0,VALID,25.6311,VALID,350,VALID,0,
2009-09-19, 02:51:05,VALID,1004.33,VALID,0,VALID,91.3635,VALID,0,VALID,25.6116,VALID,350,VALID,0.071875,
2009-09-19, 02:52:05,VALID,1004.33,VALID,0,VALID,91.2948,VALID,0,VALID,25.5902,VALID,350,VALID,0.223047,
2009-09-19, 02:53:05,VALID,1004.26,VALID,0,VALID,91.5389,VALID,0,VALID,25.5902,VALID,350,VALID,0.178516,
2009-09-19, 02:54:05,VALID,1004.26,VALID,0,VALID,91.6229,VALID,0,VALID,25.6311,VALID,350,VALID,0.208984,
2009-09-19, 02:55:05,VALID,1004.23,VALID,0,VALID,91.7678,VALID,0,VALID,25.6311,VALID,350,VALID,0.422266,
2009-09-19, 02:56:05,VALID,1004.21,VALID,0,VALID,91.4474,VALID,0,VALID,25.5707,VALID,350,VALID,0.0734375,
2009-09-19, 02:57:05,VALID,1004.17,VALID,0,VALID,91.2719,VALID,0,VALID,25.6311,VALID,350,VALID,0.000390625,
2009-09-19, 02:58:05,VALID,1004.12,VALID,0,VALID,91.2948,VALID,0,VALID,25.6292,VALID,350,VALID,0.245312,
2009-09-19, 02:59:05,VALID,1004.06,VALID,0,VALID,91.3253,VALID,0,VALID,25.6292,VALID,350,VALID,0.159375,
2009-09-19, 03:00:05,VALID,1004.05,VALID,0,VALID,91.3558,VALID,0,VALID,25.6116,VALID,350,VALID,0.319531,
2009-09-19, 03:01:05,VALID,1004.04,VALID,0,VALID,91.3635,VALID,0,VALID,25.6116,VALID,357,VALID,0.458984,
2009-09-19, 03:02:05,VALID,1004.07,VALID,0,VALID,91.4626,VALID,0,VALID,25.5727,VALID,71,VALID,0.587109,
2009-09-19, 03:03:05,VALID,1004.04,VALID,0,VALID,91.5695,VALID,0,VALID,25.5532,VALID,80,VALID,0.225391,
2009-09-19, 03:04:05,VALID,1004.03,VALID,0,VALID,91.661,VALID,0,VALID,25.4928,VALID,80,VALID,0.163672,
2009-09-19, 03:05:05,VALID,1004.01,VALID,0,VALID,91.7831,VALID,0,VALID,25.4948,VALID,80,VALID,0.0503906,
2009-09-19, 03:06:05,VALID,1003.96,VALID,0,VALID,91.8746,VALID,0,VALID,25.4558,VALID,80,VALID,0.238281,
2009-09-19, 03:07:05,VALID,1003.95,VALID,0,VALID,92.0501,VALID,0,VALID,25.4558,VALID,80,VALID,0.270312,
2009-09-19, 03:08:05,VALID,1003.92,VALID,0,VALID,92.1645,VALID,0,VALID,25.4363,VALID,29,VALID,0.504687,
2009-09-19, 03:09:05,VALID,1003.9,VALID,0,VALID,92.1798,VALID,0,VALID,25.4169,VALID,7,VALID,0.508203,
2009-09-19, 03:10:05,VALID,1003.9,VALID,0,VALID,92.2637,VALID,0,VALID,25.4383,VALID,359,VALID,0.345703,
2009-09-19, 03:11:05,VALID,1003.92,VALID,0,VALID,92.401,VALID,0,VALID,25.3974,VALID,359,VALID,0.34375,
2009-09-19, 03:12:05,VALID,1003.92,VALID,0,VALID,92.5078,VALID,0,VALID,25.3565,VALID,359,VALID,0.354297,
2009-09-19, 03:13:05,VALID,1003.91,VALID,0,VALID,92.5993,VALID,0,VALID,25.3565,VALID,359,VALID,0.270703,
2009-09-19, 03:14:05,VALID,1003.88,VALID,0,VALID,92.7214,VALID,0,VALID,25.337,VALID,359,VALID,0,
2009-09-19, 03:15:05,VALID,1003.88,VALID,0,VALID,92.8358,VALID,0,VALID,25.3779,VALID,358,VALID,0.00820312,
2009-09-19, 03:16:05,VALID,1003.83,VALID,0,VALID,92.7901,VALID,0,VALID,25.339,VALID,280,VALID,0.992578,
2009-09-19, 03:17:05,VALID,1003.85,VALID,0,VALID,92.8435,VALID,0,VALID,25.339,VALID,281,VALID,0.357422,
2009-09-19, 03:18:05,VALID,1003.85,VALID,0,VALID,92.7977,VALID,0,VALID,25.3584,VALID,289,VALID,0.259375,
2009-09-19, 03:19:05,VALID,1003.81,VALID,0,VALID,92.8053,VALID,0,VALID,25.3584,VALID,3,VALID,0.348828,
2009-09-19, 03:20:05,VALID,1003.83,VALID,0,VALID,92.7901,VALID,0,VALID,25.3584,VALID,346,VALID,1.01484,
2009-09-19, 03:21:05,VALID,1003.8,VALID,0,VALID,92.7901,VALID,0,VALID,25.3584,VALID,349,VALID,0.130859,
2009-09-19, 03:22:05,VALID,1003.79,VALID,0,VALID,92.7519,VALID,0,VALID,25.3176,VALID,350,VALID,0.930078,
2009-09-19, 03:23:05,VALID,1003.78,VALID,0,VALID,92.6528,VALID,0,VALID,25.3584,VALID,354,VALID,1.22734,
2009-09-19, 03:24:05,VALID,1003.77,VALID,0,VALID,92.5231,VALID,0,VALID,25.337,VALID,353,VALID,0.953125,
2009-09-19, 03:25:05,VALID,1003.73,VALID,0,VALID,92.4239,VALID,0,VALID,25.3584,VALID,340,VALID,1.03086,
2009-09-19, 03:26:05,VALID,1003.76,VALID,0,VALID,92.2866,VALID,0,VALID,25.376,VALID,350,VALID,0.742969,
2009-09-19, 03:27:05,VALID,1003.74,VALID,0,VALID,92.1569,VALID,0,VALID,25.376,VALID,343,VALID,0.598437,
2009-09-19, 03:28:05,VALID,1003.76,VALID,0,VALID,92.0958,VALID,0,VALID,25.4169,VALID,349,VALID,0.0886719,
2009-09-19, 03:29:05,VALID,1003.77,VALID,0,VALID,92.0424,VALID,0.100563,VALID,25.4169,VALID,274,VALID,0.319922,
2009-09-19, 03:30:05,VALID,1003.79,VALID,0,VALID,91.989,VALID,0,VALID,25.4149,VALID,17,VALID,0.533594,
2009-09-19, 03:31:05,VALID,1003.82,VALID,0,VALID,91.8975,VALID,0,VALID,25.4363,VALID,19,VALID,0.353516,
2009-09-19, 03:32:05,VALID,1003.86,VALID,0,VALID,91.8594,VALID,0,VALID,25.4753,VALID,19,VALID,0.262109,
2009-09-19, 03:33:05,VALID,1003.85,VALID,0,VALID,91.867,VALID,0,VALID,25.4753,VALID,19,VALID,0,
2009-09-19, 03:34:05,VALID,1003.84,VALID,0,VALID,91.8822,VALID,0,VALID,25.4948,VALID,19,VALID,0.108203,
2009-09-19, 03:35:05,VALID,1003.8,VALID,0,VALID,91.867,VALID,0,VALID,25.4928,VALID,324,VALID,0.308984,
2009-09-19, 03:36:05,VALID,1003.74,VALID,0,VALID,92.0882,VALID,0,VALID,25.5337,VALID,285,VALID,0.0535156,
2009-09-19, 03:37:05,VALID,1003.79,VALID,0,VALID,92.2789,VALID,0,VALID,25.5337,VALID,260,VALID,0.657422,
2009-09-19, 03:38:05,VALID,1003.82,VALID,0,VALID,92.2637,VALID,0,VALID,25.4539,VALID,248,VALID,1.06836,
2009-09-19, 03:39:05,VALID,1003.86,VALID,0,VALID,91.6229,VALID,0,VALID,25.3779,VALID,8,VALID,0.588672,
2009-09-19, 03:40:05,VALID,1003.94,VALID,0,VALID,91.4932,VALID,0,VALID,25.3565,VALID,129,VALID,1.71328,
2009-09-19, 03:41:05,VALID,1004.04,VALID,0,VALID,91.8746,VALID,0,VALID,25.3974,VALID,98,VALID,2.80859,
2009-09-19, 03:42:05,VALID,1004.07,VALID,0,VALID,91.0736,VALID,0,VALID,25.3779,VALID,99,VALID,3.1625,
2009-09-19, 03:43:05,VALID,1004.09,VALID,0,VALID,89.4334,VALID,0,VALID,25.3176,VALID,103,VALID,2.49414,
2009-09-19, 03:44:04,VALID,1004.15,VALID,0,VALID,88.8307,VALID,0,VALID,25.2611,VALID,139,VALID,3.03672,
2009-09-19, 03:45:04,VALID,1004.13,VALID,0.5,VALID,88.2204,VALID,0,VALID,25.0469,VALID,125,VALID,2.89531,